Weather History for Kendall, FL

Change the Weather History Date:

Sunday, April 21, 2013

  Actual Average Record
Temperature  
Mean Temperature 78 °F -  
Max Temperature 86 °F 82 °F 89 °F (1998)
Min Temperature 71 °F 62 °F 55 °F (1999)
Cooling Degree Days 12    
Growing Degree Days 28 (Base 50)    
Moisture  
Dew Point 71 °F    
Average Humidity 85    
Maximum Humidity 100    
Minimum Humidity 56    
Precipitation  
Precipitation 0.00 in - - ()
Sea Level Pressure  
Sea Level Pressure 30.06 in    
Wind  
Wind Speed 5 mph (NNE)    
Max Wind Speed 16 mph    
Max Gust Speed 23 mph    
Visibility 9 miles    
Events      
Averages and records for this station are not official NWS values.
T = Trace of Precipitation, MM = Missing Value Source: NWS Daily Summary

Daily Weather History Graph

Daily Weather History Graph

Search for Another Location

Airport:

Trip Planner

Search our weather history database for the weather conditions in past years. The results will help you decide how hot, cold, wet, or windy it might be!

Date:

Astronomy

Apr. 21, 2013 Rise Set
Actual Time 6:53 AM EDT 7:47 PM EDT
Civil Twilight 6:29 AM EDT 8:11 PM EDT
Nautical Twilight 6:01 AM EDT 8:39 PM EDT
Astronomical Twilight 5:32 AM EDT 9:08 PM EDT
Moon 3:55 PM EDT (4/21) 3:48 AM EDT (4/21)
Length of Visible Light 13h 42m
Length of Day
12h 54m
Waxing Gibbous, 79% of the Moon is Illuminated
Apr 21
Waxing Gibbous
Apr 25
Full
May 2
Last Quarter
May 9
New
May 18
First Quarter

Hourly Weather History & Observations

Time (EDT) Temp. Heat Index Dew Point Humidity Pressure Visibility Wind Dir Wind Speed Gust Speed Precip Events Conditions
12:53 AM 73.9 °F - 71.1 °F 91% 30.07 in 10.0 mi Calm Calm - N/A   Clear
1:53 AM 72.0 °F - 70.0 °F 93% 30.07 in 10.0 mi NE 3.5 mph - N/A   Clear
2:30 AM 75.2 °F - 71.6 °F 89% 30.06 in 10.0 mi North 4.6 mph - N/A   Mostly Cloudy
2:39 AM 75.2 °F - 71.6 °F 89% 30.06 in 10.0 mi NNW 4.6 mph - N/A   Mostly Cloudy
2:53 AM 75.0 °F - 72.0 °F 90% 30.06 in 10.0 mi North 4.6 mph - N/A   Overcast
3:53 AM 73.9 °F - 72.0 °F 93% 30.05 in 10.0 mi North 6.9 mph - N/A   Overcast
4:53 AM 73.0 °F - 71.1 °F 93% 30.02 in 10.0 mi ENE 3.5 mph - N/A   Mostly Cloudy
5:03 AM 73.4 °F - 71.6 °F 94% 30.02 in 10.0 mi Calm Calm - N/A   Scattered Clouds
5:53 AM 73.0 °F - 71.1 °F 93% 30.01 in 10.0 mi Calm Calm - N/A   Clear
6:53 AM 73.0 °F - 71.1 °F 93% 30.04 in 10.0 mi Calm Calm - N/A   Clear
7:25 AM 73.4 °F - 71.6 °F 94% 30.06 in 10.0 mi North 6.9 mph - N/A   Scattered Clouds
7:40 AM 73.4 °F - 71.6 °F 94% 30.07 in 10.0 mi NNW 10.4 mph - N/A   Mostly Cloudy
7:53 AM 73.0 °F - 72.0 °F 96% 30.08 in 9.0 mi North 10.4 mph - N/A   Overcast
8:18 AM 73.4 °F - 71.6 °F 94% 30.08 in 8.0 mi NNW 10.4 mph - N/A   Overcast
8:27 AM 71.6 °F - 71.6 °F 100% 30.09 in - NNW 10.4 mph - N/A   Overcast
8:37 AM 71.6 °F - 69.8 °F 94% 30.09 in 1.5 mi NNW 11.5 mph - N/A   Overcast
8:45 AM 71.6 °F - 71.6 °F 100% 30.09 in 2.5 mi NNW 9.2 mph - N/A   Overcast
8:53 AM 73.0 °F - 71.1 °F 93% 30.09 in 2.5 mi North 6.9 mph - N/A   Overcast
9:10 AM 73.4 °F - 71.6 °F 94% 30.09 in 10.0 mi North 5.8 mph - N/A   Mostly Cloudy
9:23 AM 73.4 °F - 69.8 °F 88% 30.09 in 10.0 mi NNE 3.5 mph - N/A   Mostly Cloudy
9:53 AM 79.0 °F - 72.0 °F 79% 30.09 in 10.0 mi NNE 8.1 mph - N/A   Clear
10:53 AM 82.9 °F 88.0 °F 72.0 °F 69% 30.09 in 10.0 mi ENE 3.5 mph - N/A   Scattered Clouds
11:53 AM 84.0 °F 89.0 °F 71.1 °F 65% 30.09 in 10.0 mi ENE 9.2 mph - N/A   Mostly Cloudy
12:53 PM 84.0 °F 89.0 °F 71.1 °F 65% 30.07 in 10.0 mi East 15.0 mph - N/A   Mostly Cloudy
1:53 PM 84.0 °F 86.5 °F 66.9 °F 56% 30.06 in 10.0 mi ESE 16.1 mph 23.0 mph N/A   Clear
2:53 PM 84.9 °F 88.8 °F 69.1 °F 59% 30.04 in 10.0 mi SE 15.0 mph 21.9 mph N/A   Scattered Clouds
3:53 PM 79.0 °F - 70.0 °F 74% 30.03 in 10.0 mi SE 9.2 mph - N/A   Scattered Clouds
4:53 PM 78.1 °F - 69.1 °F 74% 30.01 in 10.0 mi SSE 8.1 mph 16.1 mph N/A   Scattered Clouds
5:53 PM 77.0 °F - 66.9 °F 71% 30.02 in 10.0 mi Calm Calm - 0.00 in   Mostly Cloudy
6:53 PM 75.9 °F - 69.1 °F 79% 30.04 in 10.0 mi WNW 3.5 mph - 0.00 in   Partly Cloudy
7:53 PM 75.0 °F - 70.0 °F 84% 30.04 in 10.0 mi NW 8.1 mph - 0.00 in   Partly Cloudy
8:53 PM 73.0 °F - 69.1 °F 87% 30.04 in 10.0 mi East 3.5 mph - 0.00 in   Clear
9:53 PM 75.0 °F - 70.0 °F 84% 30.05 in 10.0 mi East 4.6 mph - N/A   Clear
10:53 PM 75.0 °F - 70.0 °F 84% 30.04 in 10.0 mi ESE 5.8 mph - N/A   Clear
11:53 PM 75.0 °F - 70.0 °F 84% 30.06 in 10.0 mi Calm Calm - N/A   Clear